Location: Dompnac
(44.5644°N, 4.1026°E)
Time: 11:43:40
(UTC+00:00)

Cosmos 1891 Rocket - Pass Details

Date: 19 January 2021
Orbit: 934 x 1018 km, 82.9° (Epoch: 24 February)

Event Time Altitude Azimuth Distance (km) Brightness Sun altitude
Rises 04:07:38 0° 157° (SSE) 3,674 7.8 -32.9°
Reaches altitude 10° 04:10:25 10° 147° (SSE) 2,717 7.1 -32.4°
Maximum altitude 04:15:49 32° 87° (E) 1,586 6.1 -31.5°
Drops below altitude 10° 04:21:08 10° 26° (NNE) 2,685 7.1 -30.5°
Sets 04:23:51 0° 17° (NNE) 3,624 7.7 -30.0°
